This is the latest recevied weather packets stored in our database for station/object K3CHZ. If no packets are shown the sender has not sent any weather packets the latest 10 day(s).
| Time | Temp. | Humidity | Pressure | Rain* | Wind** | Luminosity | Snow |
|---|---|---|---|---|---|---|---|
| 1777744341 | 13.33° C | 44% | 1013.6 hPa | 0 mm | - | - | - |
| 1777744041 | 13.33° C | 44% | 1013.6 hPa | 0 mm | - | - | - |
| 1777743741 | 13.33° C | 49% | 1013.7 hPa | 0 mm | - | - | - |
| 1777743441 | 13.33° C | 51% | 1013.7 hPa | 0 mm | - | - | - |
| 1777743144 | 12.78° C | 47% | 1013.6 hPa | 0 mm | - | - | - |
| 1777742838 | 13.33° C | 50% | 1013.6 hPa | 0 mm | - | - | - |
| 1777742539 | 13.33° C | 46% | 1013.8 hPa | 0 mm | - | - | - |
| 1777742239 | 12.78° C | 49% | 1013.7 hPa | 0 mm | - | - | - |
| 1777741938 | 13.33° C | 48% | 1013.7 hPa | 0 mm | - | - | - |
| 1777741638 | 13.33° C | 49% | 1013.7 hPa | 0 mm | - | - | - |
| 1777741338 | 13.33° C | 47% | 1013.9 hPa | 0 mm | - | - | - |
| 1777741038 | 13.89° C | 47% | 1014 hPa | 0 mm | - | - | - |
| 1777740739 | 13.89° C | 51% | 1013.9 hPa | 0 mm | - | - | - |
| 1777740438 | 13.33° C | 49% | 1014.1 hPa | 0 mm | - | - | - |
| 1777740137 | 12.78° C | 50% | 1014.1 hPa | 0 mm | - | - | - |
| 1777739838 | 12.78° C | 51% | 1014.1 hPa | 0 mm | - | - | - |
| 1777739538 | 12.78° C | 53% | 1014.1 hPa | 0 mm | - | - | - |
| 1777739239 | 12.78° C | 52% | 1014.1 hPa | 0 mm | - | - | - |
| 1777738941 | 12.78° C | 52% | 1014.1 hPa | 0 mm | - | - | - |
| 1777738641 | 12.78° C | 48% | 1014.2 hPa | 0 mm | - | - | - |
| 1777738341 | 12.78° C | 50% | 1014.3 hPa | 0 mm | - | - | - |
| 1777738042 | 12.78° C | 51% | 1014.2 hPa | 0 mm | - | - | - |
| 1777737741 | 12.78° C | 54% | 1014.3 hPa | 0 mm | - | - | - |
| 1777737441 | 12.78° C | 52% | 1014.4 hPa | 0 mm | - | - | - |
| 1777737141 | 12.78° C | 48% | 1014.5 hPa | 0 mm | - | - | - |
* Rain latest hour (hover to see other rain measurements)
** Current wind speed in m/s (hover to see current wind gust speed)